Weather History for Palma de Mallorca, Spain

Change the Weather History Date:

Wednesday, July 2, 2014

  Actual Average Record
Temperature  
Mean Temperature 78 °F -  
Max Temperature 88 °F 85 °F 95 °F (2000)
Min Temperature 67 °F 64 °F 60 °F (2012)
Cooling Degree Days 12    
Growing Degree Days 28 (Base 50)    
Moisture  
Dew Point 64 °F    
Average Humidity 64    
Maximum Humidity 88    
Minimum Humidity 29    
Precipitation  
Precipitation 0.00 in 0.01 in - ()
Sea Level Pressure  
Sea Level Pressure 29.95 in    
Wind  
Wind Speed 5 mph ()    
Max Wind Speed 15 mph    
Max Gust Speed 28 mph    
Visibility 7.1 miles    
Events      
Averages and records for this station are not official NWS values.
T = Trace of Precipitation, MM = Missing Value Source: Averaged Metar Reports

Daily Weather History Graph

Daily Weather History Graph

Search for Another Location

Airport:

Trip Planner

Search our weather history database for the weather conditions in past years. The results will help you decide how hot, cold, wet, or windy it might be!

Date:

Astronomy

Jul. 02, 2014 Rise Set
Actual Time 6:25 AM CEST 9:20 PM CEST
Civil Twilight 5:53 AM CEST 9:52 PM CEST
Nautical Twilight 5:12 AM CEST 10:33 PM CEST
Astronomical Twilight 4:25 AM CEST 11:20 PM CEST
Moon 11:13 AM CEST (7/2) No Moon Set
Length of Visible Light 15h 59m
Length of Day
14h 54m
Waxing Crescent, 22% of the Moon is Illuminated
Jul 2
Waxing Crescent
Jul 5
First Quarter
Jul 12
Full
Jul 19
Last Quarter
Jul 27
New

Hourly Weather History & Observations

Time (CEST) Temp. Heat Index Dew Point Humidity Pressure Visibility Wind Dir Wind Speed Gust Speed Precip Events Conditions
12:00 AM 72 °F - 65 °F 74% 29.94 in - North 2.3 mph - -  
12:00 AM 71.6 °F - 64.4 °F 78% 29.92 in 6.2 mi NE 1.2 mph - N/A   Partly Cloudy
12:30 AM 71.6 °F - 64.4 °F 78% 29.92 in 6.2 mi North 1.2 mph - N/A   Partly Cloudy
1:00 AM 71 °F - 64 °F 74% 29.94 in - ENE 4.6 mph - -  
1:00 AM 71.6 °F - 64.4 °F 78% 29.92 in 6.2 mi Variable 1.2 mph - N/A   Partly Cloudy
1:30 AM 69.8 °F - 64.4 °F 83% 29.92 in 6.2 mi NE 4.6 mph - N/A   Partly Cloudy
2:00 AM 69 °F - 65 °F 82% 29.93 in 11 mi ENE 2.3 mph - -   Scattered Clouds
2:00 AM 69.8 °F - 64.4 °F 83% 29.92 in 6.2 mi ENE 3.5 mph - N/A   Partly Cloudy
2:30 AM 69.8 °F - 64.4 °F 83% 29.92 in 6.2 mi ENE 3.5 mph - N/A   Partly Cloudy
3:00 AM 69 °F - 65 °F 85% 29.91 in - NE 2.3 mph - -  
3:00 AM 69.8 °F - 64.4 °F 83% 29.92 in 6.2 mi ENE 4.6 mph - N/A   Partly Cloudy
3:30 AM 69.8 °F - 66.2 °F 88% 29.92 in 6.2 mi ENE 3.5 mph - N/A   Partly Cloudy
4:00 AM 69 °F - 65 °F 84% 29.92 in - East 2.3 mph - -  
4:00 AM 69.8 °F - 64.4 °F 83% 29.92 in 6.2 mi East 3.5 mph - N/A   Partly Cloudy
4:30 AM 68.0 °F - 64.4 °F 88% 29.92 in 6.2 mi ENE 2.3 mph - N/A   Partly Cloudy
5:00 AM 68 °F - 64 °F 85% 29.92 in 7 mi ENE 2.3 mph - -   Scattered Clouds
5:30 AM 68.0 °F - 64.4 °F 88% 29.89 in 6.2 mi ENE 5.8 mph - N/A   Partly Cloudy
6:00 AM 68 °F - 65 °F 86% 29.91 in - ENE 4.6 mph - -  
6:00 AM 69.8 °F - 64.4 °F 83% 29.89 in 6.2 mi ENE 5.8 mph - N/A   Partly Cloudy
6:30 AM 68.0 °F - 64.4 °F 88% 29.89 in 6.2 mi ENE 4.6 mph - N/A   Partly Cloudy
7:00 AM 68 °F - 65 °F 85% 29.92 in - ENE 3.5 mph - -  
7:00 AM 68.0 °F - 64.4 °F 88% 29.92 in 6.2 mi ENE 4.6 mph - N/A   Partly Cloudy
7:30 AM 69.8 °F - 66.2 °F 88% 29.92 in 6.2 mi ENE 4.6 mph - N/A   Partly Cloudy
8:00 AM 73 °F - 67 °F 76% 29.92 in 9 mi ENE 4.6 mph - -   Scattered Clouds
8:00 AM 71.6 °F - 66.2 °F 83% 29.92 in 6.2 mi NE 8.1 mph - N/A   Partly Cloudy
8:30 AM 75.2 °F - 68.0 °F 78% 29.92 in 6.2 mi NE 4.6 mph - N/A   Partly Cloudy
9:00 AM 77 °F - 67 °F 65% 29.93 in - ENE 5.8 mph - -  
9:00 AM 75.2 °F - 68.0 °F 78% 29.92 in 6.2 mi East 4.6 mph - N/A   Partly Cloudy
9:30 AM 77.0 °F - 66.2 °F 69% 29.92 in 6.2 mi Variable 2.3 mph - N/A   Partly Cloudy
10:00 AM 80 °F - 64 °F 50% 29.93 in - ESE 4.6 mph - -  
10:00 AM 78.8 °F - 64.4 °F 61% 29.92 in 6.2 mi ESE 4.6 mph - N/A   Partly Cloudy
10:30 AM 80.6 °F 82.3 °F 64.4 °F 58% 29.92 in 6.2 mi SSE 5.8 mph - N/A   Partly Cloudy
11:00 AM 84 °F - 63 °F 39% 29.94 in 19 mi SSE 4.6 mph - -   Scattered Clouds
11:00 AM 82.4 °F 83.4 °F 62.6 °F 51% 29.95 in 6.2 mi ESE 5.8 mph - N/A   Partly Cloudy
11:30 AM 84.2 °F 84.4 °F 60.8 °F 45% 29.92 in 6.2 mi ESE 5.8 mph - N/A   Partly Cloudy
12:00 PM 85 °F - 59 °F 32% 29.93 in - ESE 9.2 mph - -  
12:00 PM 84.2 °F 83.8 °F 59.0 °F 42% 29.92 in 6.2 mi SE 8.1 mph - N/A   Partly Cloudy
12:30 PM 84.2 °F 83.8 °F 59.0 °F 42% 29.95 in 6.2 mi SE 9.2 mph - N/A   Partly Cloudy
1:00 PM 85 °F - 58 °F 29% 29.94 in - SE 8.1 mph - -  
1:00 PM 84.2 °F 83.5 °F 57.2 °F 40% 29.92 in 6.2 mi SSE 6.9 mph - N/A   Partly Cloudy
1:30 PM 84.2 °F 82.8 °F 53.6 °F 35% 29.95 in 6.2 mi SSE 10.4 mph - N/A   Partly Cloudy
2:00 PM 87 °F - 60 °F 29% 29.94 in 19 mi SE 10.4 mph - -   Scattered Clouds
2:00 PM 86.0 °F 85.4 °F 59.0 °F 40% 29.92 in 6.2 mi SE 9.2 mph - N/A   Partly Cloudy
2:30 PM 84.2 °F 84.4 °F 60.8 °F 45% 29.95 in 6.2 mi South 11.5 mph - N/A   Partly Cloudy
3:00 PM 87 °F - 61 °F 31% 29.95 in - South 11.5 mph - -  
3:00 PM 86.0 °F 86.1 °F 60.8 °F 43% 29.95 in 6.2 mi SSE 10.4 mph - N/A   Partly Cloudy
3:30 PM 84.2 °F 85.6 °F 64.4 °F 51% 29.95 in 6.2 mi South 13.8 mph - N/A   Scattered Clouds
4:00 PM 84 °F - 64 °F 42% 29.97 in - South 15.0 mph - -  
4:00 PM 82.4 °F 83.9 °F 64.4 °F 54% 29.98 in 6.2 mi SSE 13.8 mph 27.6 mph N/A   Scattered Clouds
4:30 PM 82.4 °F 83.9 °F 64.4 °F 54% 29.95 in 6.2 mi SSE 13.8 mph - N/A   Scattered Clouds
5:00 PM 85 °F - 65 °F 41% 29.94 in 16 mi South 11.5 mph - -   Partly Cloudy
5:00 PM 84.2 °F 85.6 °F 64.4 °F 51% 29.95 in 6.2 mi South 9.2 mph - N/A   Scattered Clouds
5:30 PM 82.4 °F 84.6 °F 66.2 °F 58% 29.95 in 6.2 mi South 12.7 mph - N/A   Scattered Clouds
6:00 PM 82 °F - 66 °F 48% 29.97 in - South 11.5 mph - -  
6:00 PM 80.6 °F 82.7 °F 66.2 °F 61% 29.98 in 6.2 mi South 11.5 mph - N/A   Scattered Clouds
6:30 PM 80.6 °F 82.7 °F 66.2 °F 61% 29.95 in 6.2 mi South 6.9 mph - N/A   Scattered Clouds
7:00 PM 81 °F - 66 °F 51% 29.96 in - South 6.9 mph - -  
7:00 PM 80.6 °F 82.7 °F 66.2 °F 61% 29.95 in 6.2 mi SSE 4.6 mph - N/A   Scattered Clouds
7:30 PM 80.6 °F 82.7 °F 66.2 °F 61% 29.95 in 6.2 mi SSE 5.8 mph - N/A   Partly Cloudy
8:00 PM 80 °F - 66 °F 54% 29.99 in 16 mi South 8.1 mph - -   Scattered Clouds
8:00 PM 78.8 °F - 66.2 °F 65% 29.98 in 6.2 mi SSE 6.9 mph - N/A   Partly Cloudy
8:30 PM 78.8 °F - 66.2 °F 65% 29.98 in 6.2 mi SSE 5.8 mph - N/A   Partly Cloudy
9:00 PM 78 °F - 67 °F 61% 29.99 in - SSE 9.2 mph - -  
9:00 PM 78.8 °F - 66.2 °F 65% 29.98 in 6.2 mi SSE 9.2 mph - N/A   Partly Cloudy
9:30 PM 77.0 °F - 66.2 °F 69% 29.98 in 6.2 mi ESE 3.5 mph - N/A   Partly Cloudy
10:00 PM 77 °F - 63 °F 53% 30.01 in - SE 4.6 mph - -  
10:00 PM 77.0 °F - 62.6 °F 61% 30.01 in 6.2 mi Variable 2.3 mph - N/A   Partly Cloudy
10:30 PM 77.0 °F - 62.6 °F 61% 30.04 in 6.2 mi Variable 2.3 mph - N/A   Partly Cloudy
11:00 PM 76 °F - 66 °F 63% 30.08 in 1 mi SSE 2.3 mph - -   Scattered Clouds
11:00 PM 77.0 °F - 64.4 °F 65% 30.06 in 6.2 mi Variable 1.2 mph - N/A   Partly Cloudy
11:30 PM 75.2 °F - 66.2 °F 73% 30.04 in 6.2 mi East 3.5 mph - N/A   Partly Cloudy